Skip Page Navigation
NASA JPL Caltech
NASA Logo - Jet Propulsion Laboratory + View the NASA Portal
+ Center for Near-Earth Object Studies
JPL Home Earth Solar System Stars & Galaxies Technology
JPL Solar System Dynamics
BODIES ORBITS EPHEMERIDES TOOLS PHYSICAL DATA DISCOVERY FAQ SITE MAP
IMPORTANT: The SSD Announcement email list is now available. Major changes are coming in the near future, including possible hostname and/or URL changes. To be notified of such changes, subscribe to this email list.

Please visit this page for more details.


JPL Small-Body Database Browser
Search: [ help ]  
17173 Evgenyamosov (1999 RN10)
Classification: Main-belt Asteroid          SPK-ID: 2017173
Ephemeris | Orbit Diagram | Orbital Elements | Mission Design | Physical Parameters | Discovery Circumstances | Close-Approach Data ]

[ show orbit diagram ]
Orbital Elements at Epoch 2459000.5 (2020-May-31.0) TDB
Reference: JPL 27 (heliocentric ecliptic J2000)
 Element Value Uncertainty (1-sigma)   Units 
e .1528977126104782 2.9829e-08  
a 2.394916186842653 8.0489e-09 au
q 2.028738979980603 7.288e-08 au
i .8334791799840385 4.8023e-06 deg
node 341.4599328925736 0.0002329 deg
peri 110.155609617717 0.00023382 deg
M 108.1783494112275 1.8302e-05 deg
tp 2458593.708606683885
(2019-Apr-20.20860668)
6.8449e-05 TDB
period 1353.735774217703
3.71
6.8245e-06
1.868e-08
d
yr
n .2659307723532954 1.3406e-09 deg/d
Q 2.761093393704704 9.2795e-09 au
  Orbit Determination Parameters
   # obs. used (total)      1666  
   data-arc span      15457 days (42.32 yr)  
   first obs. used      1977-09-09  
   last obs. used      2020-01-04  
   planetary ephem.      DE431  
   SB-pert. ephem.      SB431-N16  
   condition code      0  
   norm. resid. RMS      .49851  
   source      ORB  
   producer      Otto Matic  
   solution date      2020-Jan-29 00:24:25  

Additional Information
 Earth MOID = 1.04555 au 
 Jupiter MOID = 2.4153 au 
 T_jup = 3.513 
[ hide covariance matrix ]
Orbital Elements at Epoch 2456231.5 (2012-Oct-31.0) TDB
Reference: JPL 27 (heliocentric ecliptic J2000)
 Element Value Uncertainty (1-sigma)   Units 
e .1522977447590405 2.9949e-08  
q 2.030667516407402 7.3175e-08 au
tp 2455885.490096673570
(2011-Nov-19.99009667)
6.809e-05 TDB
node 341.5636577913801 0.00023238 deg
peri 110.1828038807904 0.00023331 deg
i .834937915645559 4.8029e-06 deg
  Orbit Determination Parameters
   # obs. used (total)      1666  
   data-arc span      15457 days (42.32 yr)  
   first obs. used      1977-09-09  
   last obs. used      2020-01-04  
   planetary ephem.      DE431  
   SB-pert. ephem.      SB431-N16  
   condition code      0  
   norm. resid. RMS      .49851  
   source      ORB  
   producer      Otto Matic  
   solution date      2020-Jan-29 00:24:25  

Additional Information
 Jupiter MOID = 2.4153 au 
 T_jup = 3.513 
Orbit Covariance (6×6)
  e q tp node peri i
e 8.96957138283274E-16 -2.182196989179478E-15 4.271345306994327E-13 -5.80670175762514E-15 1.422421345239839E-13 -2.855301154982126E-16
q -2.182196989179478E-15 5.354517910383228E-15 -1.044092995066048E-12 1.435092594298839E-14 -3.444844165532768E-13 7.514055525003963E-16
tp 4.271345306994327E-13 -1.044092995066048E-12 4.636238854516015E-9 -1.743901391086442E-11 1.421993776277601E-9 2.854277662311037E-13
node -5.80670175762514E-15 1.435092594298839E-14 -1.743901391086442E-11 5.400240539351388E-8 -5.400151562884512E-8 1.575001903721571E-10
peri 1.422421345239839E-13 -3.444844165532768E-13 1.421993776277601E-9 -5.400151562884512E-8 5.443439681796344E-8 -1.573950477046315E-10
i -2.855301154982126E-16 7.514055525003963E-16 2.854277662311037E-13 1.575001903721571E-10 -1.573950477046315E-10 2.306762422355491E-11

Ephemeris | Orbit Diagram | Orbital Elements | Mission Design | Physical Parameters | Discovery Circumstances | Close-Approach Data ]

Physical Parameter Table
Parameter Symbol Value Units Sigma Reference Notes
absolute magnitude H 14.5   n/a MPO358797  
diameter diameter 3.609 km 0.754 urn:nasa:pds:neowise_diameters_albedos::2.0[mainbelt] (http://adsabs.harvard.edu/abs/2011ApJ...741...68M)  
geometric albedo albedo 0.236   0.080 urn:nasa:pds:neowise_diameters_albedos::2.0[mainbelt] (http://adsabs.harvard.edu/abs/2011ApJ...741...68M)  

17173 Evgenyamosov           Discovered 1999 Sept. 7 by the Lincoln Laboratory Near-Earth Asteroid Research Team at Socorro.
Evgeny A. Amosov (b. 1986) was awarded second place in the 2003 Intel International Science and Engineering Fair for his mathematics team project; and honorable mention in the American Mathematical Society's Karl Menger Memorial Prize. He attends the Continuous Math Education Center, St. Petersburg, Russia.
NOTE: some special characters may not display properly (any characters within {} are an attempt to place the proper accent above a character)
Reference: 20040614/MPCPages.arcLast Updated: 2009-12-11

[ show close-approach data ]
Alternate Designations
 1999 RN10 = 1977 RU17 = 1981 UA15 = 1998 KS21 
Ephemeris | Orbit Diagram | Orbital Elements | Mission Design | Physical Parameters | Discovery Circumstances | Close-Approach Data ]
ABOUT SSD CREDITS/AWARDS PRIVACY/COPYRIGHT GLOSSARY LINKS
FirstGov 2020-Feb-17 22:11 UT
(server date/time)  
NASA Home Page
Site Manager:   Ryan S. Park
Webmaster  Alan B. Chamberlin